Flag for Hong Kong Weather past 2 weeks in Kowloon, Hong Kong

Now
88 °F

Passing clouds.


Feels Like: 98 °F
Forecast: 81 / 90 °F
Wind: 8 mph from West

Location: National Airport

Current Time: Aug 5, 2015 at 10:36:31 AM

Latest Report: Aug 5, 2015 at 10:00 AM


Visibility: N/A

Pressure: 29.74 "Hg

Humidity: 66%

Dew point: 75 °F

Location of KowloonLocation

Historic Weather in Kowloon — Graph

°F

Kowloon temperature yesterday

Maximum temperature yesterday: 93 °F (at 4:30 PM)
Minimum temperature yesterday: 81 °F (at 2:30 AM)
Average temperature yesterday: 86 °F

Past Weeks' High & Low Weather Summary

 TemperatureHumidityPressure
High93 °F (Aug 1, 1:00 PM)94% (Jul 21, 9:00 AM)29.92 "Hg (Jul 21, 9:00 AM)
Low79 °F (Jul 21, 9:00 AM)44% (Aug 1, 1:00 PM)29.68 "Hg (Jul 24, 3:00 PM)
Average85 °F72%29.80 "Hg
* Reported Jul 21 9:00 AM — Aug 5 9:30 AM, Kowloon, Weather by CustomWeather, © 2015

Note: Actual official high and low records may vary slightly from our data, if they occured in-between our weather recording intervals... More about our weather records

Advertising

Kowloon weather history for previous 24 hours

 ConditionsComfort  
Time TempWeatherWind HumidityBarometerVisibility
9:30 AM
Wed, Aug 5
86 °FPassing clouds.3 mph70%29.74 "HgN/A
9:00 AM86 °FPassing clouds.6 mph70%29.74 "HgN/A
8:30 AM88 °FPassing clouds.5 mph66%29.74 "HgN/A
8:00 AM86 °FPassing clouds.3 mph70%29.74 "HgN/A
7:30 AM84 °FPassing clouds.2 mph70%29.74 "HgN/A
7:00 AM82 °FPassing clouds.3 mph74%29.74 "HgN/A
6:30 AM82 °FPassing clouds.3 mph74%29.74 "HgN/A
6:00 AM81 °FPassing clouds.3 mph79%29.74 "HgN/A
5:30 AM82 °FPassing clouds.5 mph74%29.74 "HgN/A
5:00 AM82 °FPassing clouds.3 mph74%29.74 "HgN/A
4:30 AM84 °FPassing clouds.3 mph70%29.74 "HgN/A
4:00 AM82 °FPassing clouds.5 mph74%29.74 "HgN/A
3:30 AM82 °FPassing clouds.5 mph74%29.74 "HgN/A
3:00 AM84 °FPassing clouds.6 mph70%29.74 "HgN/A
2:30 AM84 °FPassing clouds.3 mph70%29.74 "HgN/A
2:00 AM84 °FClear.5 mph70%29.74 "Hg10 mi
1:30 AM84 °FPassing clouds.3 mph70%29.74 "HgN/A
1:00 AM84 °FPassing clouds.5 mph66%29.74 "HgN/A
12:30 AM84 °FClear.3 mph66%29.74 "Hg10 mi
12:00 AM84 °FClear.5 mph66%29.74 "Hg10 mi
11:30 PM
Tue, Aug 4
84 °FClear.5 mph66%29.74 "Hg10 mi
11:00 PM86 °FPassing clouds.3 mph66%29.74 "HgN/A
10:30 PM86 °FClear.3 mph62%29.74 "Hg10 mi
10:00 PM86 °FPassing clouds.5 mph66%29.74 "HgN/A
9:30 PM86 °FPassing clouds.6 mph62%29.74 "HgN/A
9:00 PM86 °FPassing clouds.8 mph59%29.71 "HgN/A
8:30 PM86 °FClear.3 mph55%29.71 "Hg10 mi
8:00 PM88 °FClear.6 mph59%29.71 "Hg10 mi
7:30 PM88 °FClear.5 mph59%29.71 "Hg10 mi
7:00 PM88 °FPassing clouds.6 mph59%29.71 "HgN/A
6:30 PM90 °FPassing clouds.7 mph52%29.71 "HgN/A
6:00 PM91 °FPassing clouds.7 mph52%29.71 "HgN/A
5:30 PM91 °FPassing clouds.8 mph52%29.71 "HgN/A
5:00 PM93 °FPassing clouds.13 mph49%29.71 "HgN/A
4:30 PM93 °FPassing clouds.12 mph49%29.71 "HgN/A
4:00 PM91 °FPassing clouds.12 mph52%29.71 "HgN/A
3:30 PM91 °FPassing clouds.12 mph52%29.71 "HgN/A
3:00 PM91 °FPassing clouds.10 mph52%29.74 "HgN/A
2:30 PM91 °FPassing clouds.10 mph52%29.74 "HgN/A
2:00 PM90 °FPassing clouds.9 mph59%29.77 "HgN/A
1:30 PM91 °FPassing clouds.9 mph56%29.77 "HgN/A
1:00 PM90 °FPassing clouds.10 mph59%29.77 "HgN/A
12:30 PM91 °FPassing clouds.9 mph52%29.80 "HgN/A
12:00 PM90 °FPassing clouds.9 mph55%29.80 "HgN/A
11:30 AM90 °FPassing clouds.8 mph59%29.80 "HgN/A
11:00 AM90 °FPassing clouds.7 mph59%29.80 "HgN/A
10:30 AM90 °FPassing clouds.5 mph59%29.80 "HgN/A
10:00 AM88 °FPassing clouds.5 mph62%29.80 "HgN/A
Weather by CustomWeather, © 2015

See weather overviewHow to use our weather pages